| time (UTC) | temp C | wind direction | speed KPH | gust KPH | rain 1hr cm | rain 24hr cm | rain mn cm | humidity % | barometer mb |
| 20260506224550 | 10 | 341 | 3.2 | 12.9 | 0.00 | 0.13 | 0.00 | 87 | 1010.4 |
| 20260506223046 | 10 | 342 | 4.8 | 17.7 | 0.00 | 0.13 | 0.00 | 86 | 1010.3 |
| 20260506221548 | 10 | 348 | 4.8 | 12.9 | 0.00 | 0.13 | 0.00 | 87 | 1010.1 |
| 20260506220047 | 10 | 312 | 4.8 | 16.1 | 0.00 | 0.13 | 0.00 | 87 | 1010.1 |
| 20260506214546 | 11 | 331 | 4.8 | 14.5 | 0.00 | 0.28 | 0.13 | 87 | 1009.9 |
| 20260506213053 | 11 | 331 | 1.6 | 8.0 | 0.00 | 0.28 | 0.13 | 87 | 1009.9 |
| 20260506211547 | 11 | 318 | 4.8 | 14.5 | 0.00 | 0.28 | 0.13 | 87 | 1009.6 |
| 20260506210050 | 11 | 309 | 6.4 | 17.7 | 0.00 | 0.28 | 0.13 | 86 | 1009.6 |
| 20260506204545 | 11 | 317 | 4.8 | 12.9 | 0.00 | 0.51 | 0.13 | 86 | 1009.4 |
| 20260506203051 | 11 | 310 | 3.2 | 11.3 | 0.00 | 0.51 | 0.13 | 87 | 1009.3 |
| 20260506201604 | 11 | 317 | 3.2 | 14.5 | 0.00 | 0.51 | 0.13 | 87 | 1009.3 |
| 20260506200051 | 12 | 0 | 1.6 | 8.0 | 0.00 | 0.51 | 0.13 | 87 | 1009.0 |
| 20260506194553 | 12 | 330 | 3.2 | 8.0 | 0.00 | 0.51 | 0.13 | 87 | 1008.8 |
| 20260506193051 | 12 | 314 | 1.6 | 8.0 | 0.00 | 0.51 | 0.13 | 86 | 1008.6 |
| 20260506191548 | 12 | 304 | 4.8 | 12.9 | 0.00 | 0.51 | 0.13 | 86 | 1008.4 |
| 20260506190051 | 12 | 333 | 3.2 | 17.7 | 0.00 | 0.51 | 0.13 | 87 | 1008.3 |
| 20260506184554 | 12 | 333 | 0.0 | 11.3 | 0.00 | 0.51 | 0.13 | 89 | 1008.1 |
| 20260506183047 | 12 | 349 | 1.6 | 11.3 | 0.03 | 0.51 | 0.13 | 88 | 1007.8 |
| 20260506181606 | 12 | 308 | 1.6 | 11.3 | 0.08 | 0.51 | 0.13 | 88 | 1007.7 |
| 20260506180048 | 12 | 317 | 3.2 | 11.3 | 0.08 | 0.51 | 0.13 | 88 | 1007.5 |
| 20260506174549 | 13 | 300 | 4.8 | 12.9 | 0.08 | 0.51 | 0.13 | 87 | 1007.5 |
| 20260506173112 | 13 | 275 | 11.3 | 16.1 | 0.08 | 0.46 | 0.08 | 86 | 1007.2 |
| 20260506171556 | 13 | 265 | 8.0 | 20.9 | 0.05 | 0.43 | 0.05 | 83 | 1007.1 |
| 20260506170050 | 15 | 259 | 14.5 | 24.1 | 0.05 | 0.43 | 0.05 | 78 | 1006.9 |
| 20260506164547 | 15 | 252 | 11.3 | 27.4 | 0.03 | 0.41 | 0.03 | 75 | 1006.6 |
| 20260506163102 | 17 | 237 | 6.4 | 12.9 | 0.00 | 0.36 | 0.00 | 66 | 1006.2 |
| 20260506161546 | 17 | 208 | 6.4 | 14.5 | 0.00 | 0.36 | 0.00 | 64 | 1006.1 |
| 20260506160046 | 17 | 205 | 3.2 | 9.7 | 0.00 | 0.36 | 0.00 | 64 | 1006.1 |
| 20260506154552 | 17 | 266 | 6.4 | 14.5 | 0.00 | 0.36 | 0.00 | 63 | 1006.3 |
| 20260506153048 | 17 | 252 | 1.6 | 17.7 | 0.00 | 0.36 | 0.00 | 62 | 1006.4 |
| 20260506151549 | 17 | 287 | 3.2 | 19.3 | 0.00 | 0.36 | 0.00 | 63 | 1006.3 |
| 20260506150055 | 17 | 217 | 8.0 | 17.7 | 0.00 | 0.36 | 0.00 | 61 | 1006.3 |
| 20260506144550 | 17 | 248 | 9.7 | 19.3 | 0.00 | 0.53 | 0.00 | 62 | 1006.0 |
| 20260506143051 | 17 | 252 | 9.7 | 22.5 | 0.00 | 0.53 | 0.00 | 61 | 1006.0 |
| 20260506141553 | 17 | 246 | 9.7 | 25.7 | 0.00 | 0.53 | 0.00 | 59 | 1006.0 |
| 20260506140058 | 17 | 187 | 11.3 | 25.7 | 0.00 | 0.53 | 0.00 | 58 | 1006.0 |
| 20260506134545 | 18 | 240 | 12.9 | 25.7 | 0.00 | 0.58 | 0.00 | 61 | 1005.9 |
| 20260506133047 | 17 | 277 | 14.5 | 22.5 | 0.00 | 0.58 | 0.00 | 63 | 1006.1 |
| 20260506131545 | 17 | 231 | 14.5 | 20.9 | 0.00 | 0.58 | 0.00 | 63 | 1006.0 |
| 20260506130054 | 18 | 237 | 9.7 | 24.1 | 0.00 | 0.58 | 0.00 | 62 | 1006.1 |
| 20260506124550 | 17 | 272 | 9.7 | 24.1 | 0.00 | 0.58 | 0.00 | 65 | 1006.1 |
| 20260506123050 | 17 | 223 | 9.7 | 24.1 | 0.00 | 0.58 | 0.00 | 64 | 1006.0 |
| 20260506121547 | 16 | 281 | 8.0 | 17.7 | 0.00 | 0.58 | 0.00 | 66 | 1006.2 |
| 20260506120106 | 17 | 261 | 9.7 | 20.9 | 0.00 | 0.58 | 0.00 | 65 | 1006.2 |
| 20260506114558 | 16 | 264 | 14.5 | 22.5 | 0.00 | 0.58 | 0.00 | 64 | 1006.4 |
| 20260506113045 | 17 | 230 | 12.9 | 22.5 | 0.00 | 0.58 | 0.00 | 65 | 1006.4 |
| 20260506111552 | 17 | 263 | 14.5 | 22.5 | 0.00 | 0.58 | 0.00 | 66 | 1006.5 |
| 20260506110045 | 16 | 210 | 12.9 | 25.7 | 0.00 | 0.58 | 0.00 | 68 | 1006.6 |
| 20260506104547 | 16 | 249 | 9.7 | 22.5 | 0.00 | 0.58 | 0.00 | 70 | 1006.6 |
| 20260506103048 | 16 | 169 | 11.3 | 24.1 | 0.00 | 0.58 | 0.00 | 72 | 1006.5 |
| 20260506101549 | 16 | 242 | 17.7 | 30.6 | 0.00 | 0.58 | 0.00 | 72 | 1006.7 |
| 20260506100049 | 15 | 162 | 20.9 | 29.0 | 0.00 | 0.58 | 0.00 | 73 | 1006.7 |
| 20260506094548 | 15 | 244 | 9.7 | 25.7 | 0.00 | 0.58 | 0.00 | 74 | 1006.8 |
| 20260506093105 | 15 | 195 | 17.7 | 29.0 | 0.00 | 0.58 | 0.00 | 74 | 1006.7 |
| 20260506091554 | 15 | 217 | 11.3 | 22.5 | 0.00 | 0.58 | 0.00 | 76 | 1006.6 |
| 20260506090056 | 15 | 217 | 11.3 | 20.9 | 0.00 | 0.58 | 0.00 | 77 | 1006.7 |
| 20260506084548 | 15 | 188 | 12.9 | 22.5 | 0.00 | 0.58 | 0.00 | 78 | 1006.5 |
| 20260506083050 | 15 | 186 | 16.1 | 27.4 | 0.00 | 0.58 | 0.00 | 80 | 1006.5 |
| 20260506081545 | 15 | 242 | 6.4 | 16.1 | 0.00 | 0.58 | 0.00 | 80 | 1006.5 |
| 20260506073046 | 14 | 182 | 11.3 | 17.7 | 0.00 | 0.58 | 0.00 | 84 | 1006.5 |
| 20260506071540 | 14 | 212 | 6.4 | 19.3 | 0.00 | 0.58 | 0.00 | 86 | 1006.6 |
| 20260506061556 | 12 | 247 | 6.4 | 16.1 | 0.00 | 0.58 | 0.00 | 91 | 1006.6 |
| 20260506044546 | 11 | 160 | 4.8 | 12.9 | 0.00 | 0.58 | 0.00 | 95 | 1006.8 |
| 20260506043053 | 11 | 217 | 9.7 | 16.1 | 0.00 | 0.58 | 0.00 | 95 | 1006.7 |
| 20260506041605 | 11 | 200 | 9.7 | 16.1 | 0.00 | 0.58 | 0.00 | 95 | 1006.7 |
| 20260506040055 | 11 | 200 | 8.0 | 14.5 | 0.00 | 0.58 | 0.00 | 95 | 1006.7 |
| 20260506034551 | 11 | 189 | 9.7 | 17.7 | 0.00 | 0.58 | 0.00 | 95 | 1006.8 |
| 20260506033052 | 12 | 199 | 11.3 | 20.9 | 0.00 | 0.58 | 0.00 | 95 | 1006.7 |
| 20260506031547 | 12 | 207 | 11.3 | 19.3 | 0.00 | 0.58 | 0.00 | 95 | 1006.9 |
| 20260506030049 | 11 | 195 | 8.0 | 12.9 | 0.00 | 0.58 | 0.00 | 95 | 1007.1 |
| 20260506024549 | 12 | 209 | 6.4 | 14.5 | 0.00 | 0.58 | 0.00 | 95 | 1007.0 |
| 20260506023055 | 12 | 182 | 4.8 | 11.3 | 0.00 | 0.58 | 0.00 | 95 | 1007.0 |
| 20260506021547 | 12 | 198 | 6.4 | 16.1 | 0.00 | 0.58 | 0.00 | 95 | 1007.1 |
| 20260506020114 | 12 | 190 | 8.0 | 17.7 | 0.00 | 0.58 | 0.00 | 95 | 1007.0 |
| 20260506014550 | 12 | 177 | 9.7 | 20.9 | 0.00 | 0.58 | 0.00 | 95 | 1007.0 |
| 20260506013051 | 12 | 194 | 12.9 | 17.7 | 0.00 | 0.58 | 0.00 | 95 | 1007.2 |
| 20260506011552 | 12 | 158 | 6.4 | 16.1 | 0.00 | 0.58 | 0.00 | 95 | 1007.1 |
| 20260506010050 | 12 | 179 | 9.7 | 17.7 | 0.00 | 0.58 | 0.00 | 95 | 1007.4 |
| 20260506004546 | 12 | 190 | 11.3 | 20.9 | 0.00 | 0.58 | 0.00 | 95 | 1007.5 |
| 20260506003047 | 12 | 185 | 12.9 | 19.3 | 0.00 | 0.58 | 0.00 | 95 | 1007.5 |
| 20260506001602 | 12 | 152 | 11.3 | 19.3 | 0.00 | 0.58 | 0.00 | 95 | 1007.4 |
| 20260506000113 | 12 | 171 | 9.7 | 20.9 | 0.00 | 0.58 | 0.00 | 95 | 1007.5 |
| 20260505234552 | 12 | 194 | 9.7 | 17.7 | 0.00 | 0.58 | 0.00 | 95 | 1007.8 |
| 20260505233053 | 12 | 185 | 9.7 | 14.5 | 0.00 | 0.58 | 0.00 | 94 | 1007.8 |
| 20260505231556 | 13 | 202 | 9.7 | 16.1 | 0.00 | 0.58 | 0.00 | 94 | 1007.8 |
| 20260505230049 | 12 | 202 | 11.3 | 16.1 | 0.00 | 0.58 | 0.00 | 94 | 1007.8 |